CDT,Max TemperatureF,Mean TemperatureF,Min TemperatureF,Max Dew PointF,MeanDew PointF,Min DewpointF,Max Humidity, Mean Humidity, Min Humidity, Max Sea Level PressureIn, Mean Sea Level PressureIn, Min Sea Level PressureIn, Max VisibilityMiles, Mean VisibilityMiles, Min VisibilityMiles, Max Wind SpeedMPH, Mean Wind SpeedMPH, Max Gust SpeedMPH,PrecipitationIn, CloudCover, Events, WindDirDegrees
2013-4-1,35,26,18,16,12,10,71,59,44,30.30,30.25,30.13,10,10,10,15,12,22,0.00,0,,310
2013-4-2,37,28,19,15,13,9,81,55,31,30.38,30.34,30.28,10,10,10,14,7,18,0.00,0,,304
2013-4-3,48,32,19,30,21,13,81,57,35,30.43,30.29,30.08,10,10,10,21,6,28,0.00,0,,173
2013-4-4,52,43,33,32,26,22,73,54,36,30.18,30.08,30.01,10,10,7,20,13,29,0.00,3,,298
2013-4-5,44,36,28,32,27,16,93,76,38,30.25,30.11,29.90,10,7,0,16,9,24,0.04,5,Fog-Snow,107
2013-4-6,57,46,37,43,35,28,90,76,52,29.86,29.63,29.48,10,8,2,21,13,28,0.13,6,Rain,355
2013-4-7,48,42,35,39,33,30,87,73,56,29.95,29.85,29.76,10,9,4,13,7,,0.07,6,Rain,296
2013-4-8,48,44,41,41,40,35,96,87,76,30.04,29.77,29.66,10,4,2,12,7,16,0.69,8,Rain,46
2013-4-9,43,38,32,35,31,27,88,77,53,30.17,30.06,29.98,10,7,1,18,13,30,0.47,8,Rain-Snow,31
2013-4-10,39,34,30,29,26,20,93,73,52,30.19,30.07,29.91,10,7,1,20,13,29,0.12,8,Rain-Snow,55
2013-4-11,36,33,30,32,30,24,100,87,62,29.88,29.72,29.66,10,2,0,20,11,26,0.59,8,Fog-Rain-Snow,55
2013-4-12,35,32,28,30,27,25,93,83,65,29.86,29.73,29.66,10,5,1,12,8,,0.02,8,Snow,342
2013-4-13,36,32,28,27,25,21,93,77,56,29.97,29.88,29.82,10,9,2,14,6,,0.00,8,Snow,277
2013-4-14,37,34,30,36,28,22,93,83,64,29.95,29.66,29.49,10,5,1,22,13,32,0.36,8,Rain-Snow,86
2013-4-15,39,36,33,34,28,24,93,72,62,30.00,29.70,29.51,10,10,10,24,14,34,0.00,6,,229
2013-4-16,45,38,33,27,26,25,75,64,49,30.34,30.19,29.98,10,10,10,17,8,23,0.00,4,,300
2013-4-17,42,38,35,36,31,26,93,80,65,30.33,30.08,29.90,10,6,2,14,8,23,0.19,7,Rain,50
2013-4-18,35,34,32,34,30,28,96,88,81,29.93,29.63,29.50,10,2,0,25,13,37,0.46,8,Fog-Rain-Snow,352
2013-4-19,37,34,30,29,25,17,93,75,47,30.01,29.63,29.48,10,6,1,25,17,34,0.00,7,Rain-Snow,323
2013-4-20,39,30,21,18,14,9,82,51,32,30.32,30.23,30.04,10,10,10,9,6,,0.00,1,,327
2013-4-21,51,42,33,46,36,22,93,81,57,30.32,30.16,30.00,10,8,2,24,10,33,0.10,8,Rain-Snow,164
2013-4-22,44,38,32,35,31,28,96,82,56,30.22,30.15,30.09,10,5,0,15,9,24,0.27,7,Fog-Rain-Snow,7
2013-4-23,42,34,28,30,25,17,93,74,40,30.18,30.13,30.08,10,7,2,15,12,25,0.00,4,Snow,326
2013-4-24,53,39,26,34,28,21,92,70,35,30.09,29.99,29.90,10,9,4,23,8,31,0.01,3,Rain,249
2013-4-25,52,42,32,31,28,22,85,62,33,30.23,30.14,30.01,10,10,10,16,10,23,0.00,4,,247
2013-4-26,72,58,46,42,37,29,71,46,28,30.13,30.03,29.98,10,10,10,15,10,22,0.01,1,Rain,232
2013-4-27,75,58,42,46,37,31,79,44,24,30.13,30.03,29.89,10,10,9,14,4,21,0.00,0,,191
2013-4-28,82,66,51,53,47,43,87,54,28,29.88,29.75,29.61,10,10,3,22,11,29,0.16,2,Rain-Thunderstorm,189
2013-4-29,75,62,50,56,45,34,86,56,34,29.81,29.70,29.54,10,10,9,13,7,,0.00,1,,65
2013-4-30,71,64,57,57,44,26,78,50,22,29.97,29.64,29.41,10,10,8,18,12,30,0.00,2,,255